Volver al catálogo

STARLINK-11088

ActivoComunicacionesVLEO
NORAD 59709·PAYLOAD·🇺🇸 United States

Lanzado May 10, 2024 desde Vandenberg Space Force Base

Loading…

Próximos Pases (próximas 24 horas)

TLE

ActualizadoSource: CelesTrak SupGP

Época: Sep 15, 2026, 02:45 UTC

1 59709C 24088B   26258.11506944  .00068511  00000+0  56420-3 0  2583
2 59709  53.1565 112.7814 0001146  89.2404 121.7233 15.69681387    14

Sigue STARLINK-11088 en tiempo real con AllMySat

Download on the App Store